This demonstration page uses our WeatherBlox Daily Observations layout. Learn more.

Left ArrowRight Arrow

39.51506, -84.39828

Hourly Observations for November 15, 2020

Temp ( °F °C ) Dew Point ( °F °C ) Humidity (%) Winds ( mph kmh ) Pressure ( in mb ) Visibility ( mi km ) Precip ( " mm )
12:15 am 00:15 Cloudy 55 12.7 40 4.4 57 57 WSW 3 6 29.82 1010 10 16.0934 0 0
12:35 am 00:35 Cloudy 55 13 39 3.9 54 54 SW 5 7 29.8 1009 10 16.0934 0 0
12:55 am 00:55 Cloudy 56 13.1 39 3.7 53 53 SW 3 6 29.79 1009 10 16.0934 0 0
1:15 am 01:15 Cloudy with Light Rain 58 14.2 40 4.4 52 52 WSW 7 11 29.77 1008 10 16.0934 0 0
1:35 am 01:35 Cloudy 59 15.1 40 4.2 48 48 WSW 10 17 29.75 1007 10 16.0934 0 0
1:55 am 01:55 Mostly Cloudy 60 15.6 38 3.6 45 45 WSW 18 30 29.73 1007 10 16.0934 0 0
2:15 am 02:15 Clear 60 15.8 39 3.7 45 45 SW 16 26 29.7 1006 10 16.0934 0 0
2:35 am 02:35 Partly Cloudy 60 15.6 39 3.8 46 46 SW 17 28 29.68 1005 10 16.0934 0 0
2:55 am 02:55 Partly Cloudy 61 16 39 4.1 45 45 SW 15 24 29.64 1004 10 16.0934 0 0
3:15 am 03:15 Mostly Cloudy 62 16.4 40 4.6 46 46 WSW 17 28 29.65 1004 10 16.0934 0 0
3:35 am 03:35 Cloudy with Thunderstorms 62 16.6 41 4.9 46 46 WSW 21 33 29.63 1003 10 16.0934 0 0
3:55 am 03:55 Cloudy with Nearby Thunderstorms 62 16.5 41 5.2 47 47 WSW 20 31 29.63 1003 10 16.0934 0 0
4:15 am 04:15 Cloudy with Light Rain 60 15.5 44 6.8 56 56 WSW 15 24 29.64 1004 10 16.0934 0 0
4:35 am 04:35 Cloudy with Light Rain 57 14.1 48 8.8 71 71 WSW 14 22 29.61 1003 10 16.0934 0.02 0.508
4:55 am 04:55 Cloudy with Light Rain 58 14.2 49 9.6 74 74 WSW 16 26 29.6 1002 7 11.26538 0.06 1.524
5:15 am 05:15 Partly Cloudy 58 14.3 50 9.9 75 75 WSW 20 31 29.59 1002 10 16.0934 0 0
5:35 am 05:35 Cloudy with Rain 58 14.4 51 10.4 77 77 WSW 21 33 29.59 1002 7 11.26538 0.01 0.254
5:55 am 05:55 Cloudy with Light Rain 56 13.6 52 11.2 86 86 WSW 20 31 29.58 1002 10 16.0934 0.02 0.508
6:15 am 06:15 Cloudy with Light Rain 56 13.3 53 11.5 89 89 W 15 24 29.6 1002 10 16.0934 0.01 0.254
6:35 am 06:35 Cloudy with Rain 55 12.9 53 11.7 92 92 W 14 22 29.62 1003 10 16.0934 0.02 0.508
6:55 am 06:55 Cloudy with Rain 55 12.7 53 11.9 95 95 WSW 12 19 29.62 1003 7 11.26538 0.04 1.016
7:15 am 07:15 Cloudy with Rain 55 12.6 54 12.1 97 97 WSW 13 20 29.62 1003 7 11.26538 0.02 0.508
7:35 am 07:35 Cloudy with Rain 55 12.8 54 12.4 97 97 W 17 28 29.62 1003 5 8.0467 0.06 1.524
7:55 am 07:55 Cloudy with Light Rain 55 12.8 54 12.3 97 97 W 12 19 29.62 1003 3.5 5.63269 0.08 2.032
8:15 am 08:15 Cloudy with Light Rain 55 12.7 54 12.2 97 97 SW 9 15 29.59 1002 7 11.26538 0.01 0.254
8:35 am 08:35 Cloudy with Light Rain 55 12.8 54 12.1 96 96 SW 10 17 29.57 1001 10 16.0934 0.02 0.508
8:55 am 08:55 Cloudy 55 12.9 54 12.2 96 96 SW 20 31 29.56 1001 10 16.0934 0.02 0.508
9:15 am 09:15 Partly Cloudy 55 13 54 12.3 96 96 WSW 16 26 29.58 1002 10 16.0934 0 0
9:35 am 09:35 Cloudy 56 13.2 54 12.2 94 94 W 16 26 29.6 1002 10 16.0934 0 0
9:55 am 09:55 Cloudy 57 13.7 53 11.9 89 89 W 25 41 29.6 1002 10 16.0934 0 0
10:15 am 10:15 Cloudy 57 13.9 54 12.1 89 89 W 18 30 29.6 1002 10 16.0934 0 0
10:35 am 10:35 Mostly Cloudy 59 14.9 54 12 83 83 W 25 41 29.6 1002 10 16.0934 0 0
10:55 am 10:55 Cloudy with Rain 57 13.7 52 11.1 84 84 W 25 41 29.61 1003 10 16.0934 0 0
11:15 am 11:15 Partly Cloudy 58 14.3 47 8.5 68 68 WNW 31 50 29.65 1004 10 16.0934 0 0
11:35 am 11:35 Partly Cloudy with Light Rain 53 11.6 45 7 74 74 NW 24 39 29.69 1006 10 16.0934 0 0
11:55 am 11:55 Sunny 53 11.9 39 3.9 58 58 WNW 26 43 29.71 1006 10 16.0934 0 0
12:15 pm 12:15 Partly Cloudy 53 11.6 38 3.4 57 57 NW 24 39 29.73 1007 10 16.0934 0 0
12:35 pm 12:35 Mostly Cloudy 51 10.8 37 3 59 59 NW 25 41 29.76 1008 10 16.0934 0 0
12:55 pm 12:55 Partly Cloudy 53 11.8 38 3.3 56 56 NW 24 39 29.76 1008 10 16.0934 0 0
1:15 pm 13:15 Cloudy 51 10.8 36 2.4 56 56 WNW 23 37 29.79 1009 10 16.0934 0 0
1:35 pm 13:35 Cloudy 51 10.5 36 2.2 57 57 WNW 26 43 29.8 1009 10 16.0934 0 0
1:55 pm 13:55 Cloudy 51 10.3 36 2.3 58 58 NW 24 39 29.83 1010 10 16.0934 0 0
2:15 pm 14:15 Mostly Cloudy 51 10.3 35 1.7 56 56 WNW 32 52 29.84 1010 10 16.0934 0 0
2:35 pm 14:35 Mostly Cloudy 50 9.8 35 1.5 57 57 NW 24 39 29.86 1011 10 16.0934 0 0
2:55 pm 14:55 Mostly Cloudy with Light Rain 48 8.7 39 4 73 73 WNW 21 33 29.88 1012 7 11.26538 0 0
3:15 pm 15:15 Cloudy 49 9.4 37 2.5 62 62 WNW 22 35 29.88 1012 10 16.0934 0 0
3:35 pm 15:35 Mostly Cloudy 49 9.6 36 2.1 60 60 WNW 26 43 29.9 1013 10 16.0934 0 0
3:55 pm 15:55 Partly Cloudy 49 9.3 34 1.3 58 58 WNW 22 35 29.91 1013 10 16.0934 0 0
4:15 pm 16:15 Cloudy 50 10 35 1.7 57 57 W 26 43 29.92 1013 10 16.0934 0 0
4:35 pm 16:35 Mostly Cloudy 50 9.8 35 1.4 56 56 WNW 20 31 29.93 1014 10 16.0934 0 0
4:55 pm 16:55 Sunny 48 9 34 1.2 58 58 WNW 16 26 29.94 1014 10 16.0934 0 0
5:15 pm 17:15 Mostly Cloudy 48 8.7 34 1.1 59 59 W 16 26 29.94 1014 10 16.0934 0 0
5:35 pm 17:35 Partly Cloudy 47 8.4 34 1.3 61 61 W 17 28 29.95 1014 10 16.0934 0 0
5:55 pm 17:55 Partly Cloudy 47 8.3 34 1 60 60 W 15 24 29.97 1015 10 16.0934 0 0
6:15 pm 18:15 Partly Cloudy 46 7.9 34 1.2 63 63 W 10 17 29.97 1015 10 16.0934 0 0
6:35 pm 18:35 Mostly Cloudy 47 8.3 34 1.2 61 61 W 13 20 29.99 1016 10 16.0934 0 0
6:55 pm 18:55 Mostly Cloudy 47 8.4 34 1.2 61 61 WNW 13 20 30 1016 10 16.0934 0 0
7:15 pm 19:15 Mostly Cloudy 47 8.1 34 1.3 63 63 WNW 13 20 30 1016 10 16.0934 0 0
7:35 pm 19:35 Partly Cloudy 47 8.2 33 0.8 60 60 WNW 12 19 30.01 1016 10 16.0934 0 0
7:55 pm 19:55 Mostly Cloudy 47 8.1 33 0.7 60 60 WNW 12 19 30.03 1017 10 16.0934 0 0
8:15 pm 20:15 Cloudy 47 8.3 33 0.4 58 58 WNW 15 24 30.04 1017 10 16.0934 0 0
8:35 pm 20:35 Cloudy 47 8.4 32 0 56 56 WNW 14 22 30.04 1017 10 16.0934 0 0
8:55 pm 20:55 Cloudy 47 8.3 32 -0.2 55 55 WNW 15 24 30.05 1018 10 16.0934 0 0
9:15 pm 21:15 Cloudy 47 8.4 31 -0.4 54 54 W 15 24 30.05 1018 10 16.0934 0 0
9:35 pm 21:35 Cloudy 47 8.3 31 -0.4 55 55 WNW 14 22 30.05 1018 10 16.0934 0 0
9:55 pm 21:55 Cloudy 47 8.3 31 -0.5 54 54 W 16 26 30.05 1018 10 16.0934 0 0
10:15 pm 22:15 Cloudy 47 8.4 31 -0.7 53 53 W 17 28 30.06 1018 10 16.0934 0 0
10:35 pm 22:35 Cloudy 47 8.5 31 -0.7 53 53 W 15 24 30.06 1018 10 16.0934 0 0
10:55 pm 22:55 Cloudy 47 8.5 31 -0.8 52 52 W 21 33 30.06 1018 10 16.0934 0 0
11:15 pm 23:15 Cloudy 47 8.3 30 -0.9 53 53 W 20 31 30.06 1018 10 16.0934 0 0
11:35 pm 23:35 Cloudy 47 8.3 30 -1.2 52 52 W 17 28 30.06 1018 10 16.0934 0 0
11:55 pm 23:55 Partly Cloudy 46 7.6 29 -1.4 53 53 WNW 16 26 30.08 1018 10 16.0934 0 0

Powered by AerisWeather